Regional Weather Roundup
Issued by NWS

Home | Current Version | Previous Version | Text Only | Print | Product List | Glossary Off
Versions: 1 2 3 4 5 6 7 8 9 10 11 12 13 14 15 16 17 18 19 20 21 22 23 24 25 26 27 28 29 30 31 32 33 34 35 36 37 38 39 40 41 42 43 44 45 46 47 48 49 50

000
ASUS43 KDMX 230601
RWRIA

WEATHER ROUNDUP FOR IOWA
NATIONAL WEATHER SERVICE DES MOINES IA
100 AM CDT WED MAY 23 2018

NOTE: "FAIR" INDICATES FEW OR NO CLOUDS BELOW 12,000 FEET WITH NO
SIGNIFICANT WEATHER AND/OR OBSTRUCTIONS TO VISIBILITY.

* - THESE STATIONS ARE NOT NWS STATIONS...THUS NOT UNDER NWS
QUALITY CONTROL.  THEY ALSO DO NOT REPORT WEATHER SUCH
AS PRECIPITATION OR FOG.

IAZ001>003-012>014-020>022-031>034-043>046-230700-
   NORTHWEST IOWA

CITY           SKY/WX    TMP DP  RH WIND       PRES   REMARKS
CARROLL *      PTCLDY   N/A N/A N/A S9        30.00F
CHEROKEE *     PTCLDY    67  63  89 SE5       29.99S
DENISON *      CLEAR     68  64  88 S13       30.01S
LE MARS *      CLEAR     68  63  83 S8        29.96F
ORANGE CITY *  PTCLDY    70  63  78 SE5       29.99S
SHELDON *      MOCLDY    68  64  88 SE13G18   29.97F
SIOUX CITY     CLEAR     66  63  90 SE7       29.96S
6HR MIN TEMP:  66; 6HR MAX TEMP:  78;

SPENCER        CLOUDY    69  62  78 SE10      30.01F
6HR MIN TEMP:  68; 6HR MAX TEMP:  79; 6HR PCP:  0.02;

STORM LAKE *   PTCLDY    66  63  88 SE13      30.00F
$$

IAZ055>058-069>071-079>083-090>094-230700-
   SOUTHWEST IOWA

CITY           SKY/WX    TMP DP  RH WIND       PRES   REMARKS
ATLANTIC *     PTCLDY    70  63  78 S8        30.01F
AUDUBON *      CLEAR     66  63  88 CALM      30.03F
CLARINDA *     PTCLDY    68  61  77 S5        30.04S
COUNCIL BLFS * MOCLDY    70  70 100 SE8       30.00S
CRESTON *      CLEAR     66  63  88 SE7       30.06S
HARLAN  *      PTCLDY    70  63  78 S7        30.04S
LAMONI         PTCLDY    70  60  70 S5        30.05S
6HR MIN TEMP:  70; 6HR MAX TEMP:  80;

RED OAK *      CLOUDY    68  63  83 S6        30.01F
SHENANDOAH *   CLEAR     70  61  73 SE7       30.01S
$$

IAZ047>049-059>061-072>074-084-230700-
   CENTRAL IOWA

CITY           SKY/WX    TMP DP  RH WIND       PRES   REMARKS
AMES           PTCLDY    66  62  87 SE5       30.03F
6HR MIN TEMP:  66; 6HR MAX TEMP:  75;

ANKENY *       MOCLDY    70  63  78 SE6       30.05S
BOONE *        CLOUDY    68  63  83 SE9       30.03S
CHARITON *     CLEAR     66  63  88 SE7       30.05F
DES MOINES     MOCLDY    71  63  75 SE9       30.04R
6HR MIN TEMP:  71; 6HR MAX TEMP:  78;

GRINNELL*      PTCLDY    65  60  84 E5        30.08S
KNOXVILLE *    CLOUDY    70  63  78 SE8       30.04F
MARSHALLTOWN   CLOUDY    66  63  90 E9        30.05S
6HR MIN TEMP:  66; 6HR MAX TEMP:  76;

NEWTON *       PTCLDY    68  63  83 SE7       30.06S
PELLA *        CLOUDY    68  61  79 SE6       30.06F
PERRY *        FAIR      69  64  84 SE9       30.03S
$$

IAZ004>006-015-016-023>025-035-036-230700-
   NORTH CENTRAL IOWA

CITY           SKY/WX    TMP DP  RH WIND       PRES   REMARKS
ALGONA *       MOCLDY    70  63  78 S10       30.04R
CLARION *      CLOUDY    70  63  78 SE10      30.05S
ESTHERVILLE    TSTM      65  63  93 SE10      30.02S FOG
6HR MIN TEMP:  65; 6HR MAX TEMP:  77; 6HR PCP:  0.19;

FORT DODGE *   CLOUDY    68  64  87 NE10      30.05R THUNDER
MASON CITY     MOCLDY    66  60  81 SE8       30.07R
6HR MIN TEMP:  66; 6HR MAX TEMP:  78;

FOREST CITY *  CLOUDY    68  63  83 SE5       30.06R
WEBSTER CITY * LGT RAIN  68  66  94 S17       30.04R
IOWA FALLS *   MOCLDY    68  64  84 E7        30.07R
$$

IAZ007>011-017>019-026>030-037>042-050>054-066-230700-
   NORTHEAST IOWA

CITY           SKY/WX    TMP DP  RH WIND       PRES   REMARKS
CEDAR RAPIDS   FAIR      63  60  90 SE8       30.07F
6HR MIN TEMP:  63; 6HR MAX TEMP:  77;

CHARLES CITY * FAIR      63  59  88 SE9       30.08S
CLINTON *      FAIR     N/A N/A N/A E7        30.11S
DECORAH *      CLOUDY    61  59  94 SE6       30.09S
DUBUQUE        FAIR      59  56  89 E6        30.10F
6HR MIN TEMP:  58; 6HR MAX TEMP:  72;

MONTICELLO *   FAIR      61  61 100 SE3       30.09S
OELWEIN *      CLOUDY    63  59  88 E8        30.09R
WATERLOO       CLOUDY    66  61  84 SE7       30.07R
6HR MIN TEMP:  65; 6HR MAX TEMP:  75;

$$

IAZ064-065-067-068-078-230700-
   EAST CENTRAL IOWA

CITY           SKY/WX    TMP DP  RH WIND       PRES   REMARKS
DAVENPORT      FAIR      61  58  90 E7        30.11S
6HR MIN TEMP:  61; 6HR MAX TEMP:  74;

IOWA CITY      MOCLDY    67  60  78 VRB3      30.09S
6HR MIN TEMP:  67; 6HR MAX TEMP:  78;

MUSCATINE *    FAIR      63  59  88 NE5       30.09S
QUAD CITIES    FAIR      61  59  93 CALM      30.09R
6HR MIN TEMP:  58; 6HR MAX TEMP:  75;

$$

IAZ062-063-075>077-085>089-095>099-230700-
   SOUTHEAST IOWA

CITY           SKY/WX    TMP DP  RH WIND       PRES   REMARKS
BURLINGTON     CLEAR     67  59  75 E6        30.08S
6HR MIN TEMP:  67; 6HR MAX TEMP:  78;

FAIRFIELD *    PTCLDY    66  61  82 SE5       30.07S
FORT MADISON * CLEAR     66  61  82 CALM      30.09S
KEOKUK *       CLEAR     66  61  82 E7        30.07S
OSKALOOSA *    FAIR      67  61  83 SE8       30.07S
CENTERVILLE *    N/A     64  64 100 CALM      30.08S
OTTUMWA        CLEAR     67  61  81 SE7       30.07R
6HR MIN TEMP:  66; 6HR MAX TEMP:  80;

WASHINGTON *   CLEAR     64  64 100 E6        30.09S
$$

ABBREVIATIONS USED IN REMARKS
   TC - TEMPERATURES IN CELSIUS
  WCI - WIND CHILL INDEX
   HX - HEAT INDEX
  VSB - VISIBILITY
$$




USA.gov is the U.S. government's official web portal to all federal, state and local government web resources and services.